Wind_Speed
26 27 27 27 27 26 26 26 27 28 28 29 29 29 30 30 31 31 31 32 32 33 34 32 32 32 32 32 32 31 31 31 31 31 31 31 31 31
25 26 27 27 27 27 27 26 26 27 28 29 30 30 30 30 30 31 31 31 32 33 34 33 33 33 33 34 34 34 33 32 31 31 32 32 32 31
24 24 26 26 27 27 27 26 26 27 28 28 29 30 30 30 30 30 30 31 32 32 33 33 33 33 33 33 33 33 33 32 32 32 32 32 32 32
21 22 23 24 25 26 27 27 27 28 28 28 28 29 30 29 29 30 31 31 33 33 32 32 32 32 32 32 32 32 32 32 32 31 32 33 33 33
19 20 21 23 24 25 26 27 27 28 28 28 28 29 29 29 29 30 31 31 32 33 33 32 32 32 32 32 31 31 31 31 31 31 31 32 33 33
19 19 20 21 22 23 24 25 26 26 27 28 28 29 30 30 31 31 31 31 32 31 31 32 32 33 32 32 32 32 32 32 31 31 31 32 32 33
19 19 19 20 21 22 23 24 25 25 26 27 28 29 28 29 30 30 30 29 30 29 30 30 31 31 32 33 33 33 33 33 32 31 32 32 33 33
18 18 19 20 21 22 24 24 25 25 25 26 27 28 28 28 28 29 29 29 29 29 30 30 30 30 30 30 31 31 32 33 32 31 32 33 33 33
18 18 18 19 21 22 23 23 24 24 25 26 26 27 27 26 27 27 28 28 29 30 30 30 30 30 30 30 31 31 31 32 32 31 32 33 34 34
18 19 19 19 19 20 21 22 22 23 24 25 25 26 27 27 28 27 26 27 27 28 29 30 30 30 30 30 31 31 32 32 32 32 32 33 33 34
18 19 20 20 20 21 21 22 22 22 23 23 24 25 27 27 28 27 27 26 26 26 26 26 27 28 29 30 30 31 32 32 33 33 33 34 34 35
19 20 20 20 21 21 21 21 21 22 22 22 23 24 26 26 27 26 26 25 24 24 25 25 26 27 28 28 28 29 30 31 31 32 33 34 34 35
20 20 19 19 20 20 20 20 20 20 21 21 22 23 23 24 24 24 24 24 24 25 25 25 25 26 27 28 28 28 29 29 30 32 33 34 33 34
20 19 19 19 19 19 19 19 19 19 20 21 22 22 22 22 22 23 23 24 24 25 25 25 25 25 26 27 28 28 29 29 30 30 30 32 33 34
20 19 19 18 18 19 18 18 18 19 19 19 20 21 21 21 21 21 21 22 23 23 24 24 25 25 26 26 27 28 28 29 29 29 29 29 30 32
20 19 19 18 18 18 19 19 20 20 20 20 20 20 19 19 19 20 21 22 22 23 24 24 25 25 25 26 26 27 27 28 28 29 29 29 30 30
21 20 20 19 19 19 19 19 20 20 20 20 20 20 20 20 20 21 21 21 22 22 23 23 24 25 26 26 26 26 27 28 28 28 29 29 30 31
21 21 21 21 20 20 20 20 21 21 20 20 20 20 20 20 21 21 21 21 22 22 23 23 23 24 25 25 26 26 26 27 27 29 29 29 29 30
22 22 21 21 21 21 21 21 20 20 19 19 19 19 19 19 20 20 20 21 21 21 21 22 22 23 23 24 24 25 25 26 27 28 29 29 29 29
23 23 22 22 22 21 21 21 20 20 19 19 19 18 18 19 19 19 19 20 20 20 20 20 20 21 21 21 21 22 23 24 24 25 26 27 28 29
24 23 23 23 23 22 21 20 20 20 19 19 19 19 19 19 18 18 18 18 18 18 18 18 18 19 18 19 19 20 21 22 22 23 24 24 25 26
24 23 22 22 22 22 21 21 21 20 20 19 19 19 19 18 17 17 17 17 17 16 16 15 16 17 17 17 17 17 18 19 20 20 21 22 22 23
23 23 23 22 22 22 21 21 21 21 20 19 18 17 17 16 16 15 14 14 14 14 15 15 15 15 16 16 16 16 16 16 17 18 18 19 20 20
Wind_Direction
271 268 266 264 265 267 266 264 262 262 262 263 263 262 261 259 260 260 260 259 258 257 257 256 256 257 256 255 255 255 255 256 255 254 253 253 251 250
272 269 266 264 264 265 266 265 264 263 265 263 261 262 262 262 261 260 261 260 259 258 257 256 257 258 258 257 257 255 255 256 257 255 254 253 251 249
275 271 266 265 265 266 265 265 265 265 265 264 262 262 261 259 260 262 262 261 260 259 259 258 258 258 257 256 256 255 255 255 257 257 255 253 252 250
277 273 270 267 267 267 266 267 268 267 267 265 264 263 261 259 261 263 262 262 261 260 260 260 258 256 256 255 256 256 255 255 255 256 255 253 252 250
282 278 274 271 269 269 269 270 270 270 268 267 266 264 262 262 263 263 263 264 264 261 260 258 256 255 256 255 255 256 255 255 254 254 255 254 252 251
288 284 279 275 273 273 273 273 272 271 270 269 268 266 264 264 264 264 264 267 266 262 259 257 255 255 256 255 256 255 255 255 254 254 255 254 252 251
294 290 284 278 276 277 277 275 273 273 273 272 271 267 266 265 266 266 266 266 265 260 257 256 255 255 256 256 257 256 254 253 253 254 254 253 252 252
299 294 290 283 280 280 279 277 275 276 275 274 272 270 269 268 267 267 266 266 264 260 258 256 255 255 255 256 256 257 257 255 254 255 253 251 251 252
299 297 295 291 287 285 282 279 277 276 277 277 274 272 269 268 269 269 267 266 265 260 258 257 255 255 254 255 257 257 257 256 256 255 254 253 253 252
300 296 296 295 293 290 287 282 280 280 279 277 276 273 271 269 270 269 269 267 264 262 260 258 256 255 254 255 255 255 255 256 257 255 254 253 253 253
304 299 298 299 297 293 289 284 282 282 282 279 278 277 273 271 271 269 269 269 265 262 262 260 257 256 256 256 256 256 255 255 254 254 254 253 253 252
310 305 300 301 299 295 290 286 284 283 282 281 281 280 275 271 269 268 267 266 266 265 265 265 262 259 260 260 259 258 258 257 257 255 255 254 253 253
313 310 306 303 301 299 295 291 288 285 284 282 282 281 279 274 270 269 267 266 266 266 266 265 263 261 261 260 260 261 261 260 259 257 256 256 255 255
315 313 312 309 306 303 301 296 291 288 288 286 283 282 281 276 271 269 267 264 263 264 264 264 263 261 262 261 261 261 261 261 262 260 258 257 257 258
321 319 316 314 310 306 303 298 293 292 291 288 286 285 283 278 272 269 268 266 264 264 264 264 264 264 264 263 263 262 261 261 261 261 260 259 259 258
322 321 318 316 312 308 305 302 299 294 290 288 287 286 283 279 274 271 269 268 266 265 265 264 264 263 265 265 265 263 261 261 261 261 262 261 261 260
321 319 317 315 312 310 307 304 302 298 293 290 288 286 283 281 278 275 273 271 269 266 265 265 265 266 267 265 264 264 264 263 262 262 262 262 261 262
322 318 315 315 313 311 309 306 302 299 295 291 288 287 285 282 279 277 275 273 271 268 267 268 267 266 268 268 266 266 264 264 262 261 263 263 262 262
321 320 317 316 316 314 311 308 306 303 300 296 293 290 288 285 282 279 276 274 273 271 269 269 269 268 269 270 270 268 267 266 264 263 264 264 263 261
319 319 318 316 315 313 313 312 309 306 302 299 298 296 292 288 283 279 276 274 272 270 269 270 271 270 271 272 270 270 268 268 267 267 267 265 264 263
319 318 316 315 315 315 314 314 312 308 303 298 295 294 292 290 286 282 279 277 275 274 274 274 275 274 273 271 269 269 270 269 269 267 266 265 265 265
319 319 318 317 316 315 312 311 311 309 304 300 295 292 291 289 286 283 282 280 278 277 277 278 275 273 272 270 271 273 274 272 270 267 265 265 265 266
319 319 319 318 317 316 314 312 311 310 307 303 298 294 290 288 287 284 282 281 280 279 280 278 276 276 273 273 276 277 276 275 272 270 269 268 267 268
Height
5735 5735 5736 5737 5737 5738 5739 5740 5741 5743 5744 5745 5745 5746 5747 5748 5749 5750 5751 5753 5754 5755 5757 5758 5759 5761 5763 5764 5766 5767 5769 5770 5771 5773 5775 5776 5778 5781
5727 5727 5728 5729 5730 5731 5731 5732 5732 5734 5735 5736 5737 5738 5738 5739 5740 5741 5742 5743 5744 5746 5747 5748 5750 5751 5752 5754 5756 5758 5759 5761 5762 5764 5766 5768 5770 5772
5720 5719 5720 5721 5722 5723 5723 5724 5724 5725 5726 5728 5728 5729 5730 5730 5731 5732 5733 5734 5735 5736 5737 5738 5740 5741 5742 5744 5745 5747 5749 5751 5753 5755 5756 5759 5761 5764
5713 5712 5713 5713 5714 5715 5715 5716 5717 5717 5718 5719 5720 5720 5720 5721 5722 5723 5724 5725 5726 5726 5727 5728 5730 5731 5733 5734 5736 5737 5739 5741 5743 5745 5747 5750 5752 5754
5707 5706 5706 5706 5707 5707 5708 5708 5709 5709 5709 5710 5711 5711 5711 5712 5714 5714 5714 5715 5715 5716 5717 5718 5720 5722 5724 5725 5727 5728 5730 5732 5734 5736 5738 5740 5743 5745
5702 5701 5700 5700 5700 5700 5700 5701 5701 5701 5701 5702 5702 5702 5703 5703 5704 5705 5705 5706 5706 5707 5708 5709 5710 5712 5714 5716 5718 5720 5721 5723 5725 5727 5729 5731 5734 5736
5697 5696 5695 5694 5694 5694 5693 5693 5693 5694 5694 5694 5694 5694 5694 5695 5695 5695 5696 5696 5696 5697 5698 5700 5702 5704 5705 5707 5709 5710 5712 5714 5716 5718 5720 5722 5725 5727
5693 5691 5689 5688 5688 5687 5686 5686 5686 5686 5686 5686 5686 5685 5685 5686 5686 5686 5687 5687 5688 5689 5689 5691 5693 5694 5696 5697 5699 5701 5703 5705 5707 5709 5711 5713 5715 5718
5688 5687 5685 5683 5682 5681 5680 5679 5679 5678 5678 5678 5677 5677 5677 5678 5678 5678 5678 5678 5679 5680 5680 5682 5684 5685 5687 5688 5690 5692 5693 5695 5697 5699 5702 5704 5706 5708
5684 5682 5680 5678 5676 5674 5673 5672 5671 5670 5670 5669 5669 5670 5669 5669 5669 5669 5669 5670 5670 5671 5671 5673 5674 5676 5678 5679 5681 5682 5684 5686 5688 5690 5692 5694 5696 5698
5679 5677 5675 5673 5671 5669 5667 5665 5665 5664 5662 5661 5661 5661 5661 5660 5660 5660 5661 5661 5662 5663 5663 5664 5666 5667 5668 5670 5671 5673 5675 5676 5678 5680 5682 5684 5686 5688
5675 5672 5669 5667 5665 5663 5661 5659 5658 5657 5656 5655 5654 5654 5653 5653 5652 5652 5653 5653 5654 5655 5655 5656 5657 5658 5660 5661 5662 5663 5665 5667 5668 5670 5672 5674 5676 5678
5670 5667 5664 5662 5659 5657 5655 5653 5652 5651 5649 5648 5647 5646 5645 5645 5645 5645 5645 5645 5646 5647 5648 5648 5649 5650 5651 5652 5654 5655 5656 5657 5659 5660 5662 5664 5666 5668
5665 5662 5659 5657 5654 5652 5650 5648 5646 5645 5643 5642 5640 5639 5638 5638 5637 5637 5637 5638 5638 5639 5639 5639 5640 5641 5642 5643 5645 5646 5647 5648 5649 5651 5652 5654 5656 5657
5661 5658 5655 5652 5650 5647 5645 5642 5640 5639 5637 5635 5634 5633 5632 5631 5630 5630 5630 5630 5631 5631 5631 5632 5632 5633 5633 5635 5636 5637 5638 5639 5640 5641 5643 5644 5645 5647
5657 5654 5651 5648 5645 5642 5639 5637 5634 5632 5630 5629 5628 5626 5625 5624 5623 5623 5623 5623 5623 5623 5624 5624 5624 5625 5625 5626 5627 5627 5628 5629 5630 5632 5633 5634 5635 5637
5653 5650 5647 5644 5640 5637 5634 5632 5629 5627 5624 5623 5621 5620 5619 5618 5617 5616 5616 5615 5615 5616 5616 5616 5616 5616 5617 5617 5618 5619 5619 5620 5621 5622 5623 5625 5626 5627
5649 5645 5642 5639 5635 5632 5629 5626 5623 5621 5618 5616 5615 5613 5612 5611 5610 5609 5608 5608 5608 5608 5608 5608 5608 5608 5609 5609 5610 5610 5610 5611 5612 5613 5613 5615 5616 5617
5645 5641 5637 5634 5630 5627 5624 5621 5618 5615 5612 5610 5608 5606 5605 5604 5603 5602 5601 5601 5601 5601 5601 5601 5600 5600 5600 5601 5602 5601 5602 5602 5603 5603 5604 5605 5606 5607
5640 5636 5632 5629 5625 5622 5618 5615 5612 5609 5607 5604 5602 5600 5598 5597 5596 5595 5594 5594 5594 5594 5594 5593 5593 5593 5593 5594 5594 5594 5593 5593 5594 5595 5595 5595 5596 5597
5634 5631 5627 5623 5620 5616 5613 5610 5607 5604 5601 5598 5596 5594 5592 5591 5589 5588 5588 5587 5587 5587 5587 5587 5586 5586 5586 5586 5586 5586 5586 5586 5586 5586 5587 5587 5587 5588
5629 5625 5621 5618 5614 5611 5607 5604 5601 5598 5595 5592 5590 5588 5586 5585 5584 5583 5582 5581 5581 5581 5581 5581 5580 5580 5580 5580 5580 5580 5580 5579 5579 5579 5579 5580 5580 5580
5624 5620 5616 5613 5609 5605 5602 5598 5596 5593 5590 5587 5584 5582 5581 5579 5578 5578 5577 5577 5576 5576 5576 5575 5575 5575 5574 5575 5574 5574 5574 5573 5573 5573 5573 5573 5573 5573